DW4238 Weather Reports


time (UTC)temp
F
wind
direction
speed
knots
gust
knots
rain 1hr
in
rain 24hr
in
rain mn
in
humidity
%
barometer
mb
20260506093121 76 172 8.7 12.2 0.00 0.00 0.00 89 1007.1
20260506092631 76 170 6.1 8.7 0.00 0.00 0.00 90 1007.2
20260506092111 76 178 5.2 10.4 0.00 0.00 0.00 90 1007.2
20260506091539 76 196 6.1 10.4 0.00 0.00 0.00 90 1007.1
20260506091042 76 192 7.0 11.3 0.00 0.00 0.00 90 1007.0
20260506090045 76 179 6.1 10.4 0.00 0.00 0.00 90 1006.9
20260506085536 76 184 7.8 10.4 0.00 0.00 0.00 90 1006.9
20260506085123 76 174 7.8 10.4 0.00 0.00 0.00 90 1006.9
20260506084546 76 175 6.1 8.7 0.00 0.00 0.00 90 1006.9
20260506084035 76 170 6.1 8.7 0.00 0.00 0.00 90 1006.9
20260506083058 76 171 8.7 11.3 0.00 0.00 0.00 90 1006.8
20260506082608 76 171 8.7 13.0 0.00 0.00 0.00 90 1006.9
20260506082110 76 158 8.7 13.0 0.00 0.00 0.00 90 1006.9
20260506081534 76 178 7.8 13.0 0.00 0.00 0.00 90 1007.0
20260506081037 76 169 9.6 13.0 0.00 0.00 0.00 90 1006.9
20260506080108 76 139 7.0 14.8 0.00 0.00 0.00 90 1007.0
20260506073026 76 157 11.3 15.6 0.00 0.00 0.00 90 1007.2
20260506072539 76 200 10.4 15.6 0.00 0.00 0.00 90 1007.2
20260506071558 76 191 8.7 16.5 0.00 0.00 0.00 90 1007.3
20260506071116 76 147 11.3 16.5 0.00 0.00 0.00 90 1007.4
20260506070525 76 148 9.6 14.8 0.00 0.00 0.00 89 1007.5
20260506062024 76 158 9.6 14.8 0.00 0.00 0.00 89 1007.8
20260506061543 76 175 7.8 12.2 0.00 0.00 0.00 90 1007.9
20260506061052 76 148 8.7 12.2 0.00 0.00 0.00 89 1007.9
20260506060541 76 148 8.7 14.8 0.00 0.00 0.00 89 1007.9
20260506051040 76 150 9.6 13.0 0.00 0.00 0.00 89 1007.8
20260506050549 76 155 10.4 15.6 0.00 0.00 0.00 89 1007.8
20260506045053 76 162 8.7 12.2 0.00 0.00 0.00 89 1007.9
20260506044525 76 134 7.8 13.0 0.00 0.00 0.00 88 1007.9
20260506044028 77 162 8.7 13.0 0.00 0.00 0.00 88 1008.0
20260506043635 77 140 7.8 12.2 0.00 0.00 0.00 88 1008.0
20260506043046 77 157 8.7 13.9 0.00 0.00 0.00 87 1007.9
20260506042528 77 161 9.6 13.0 0.00 0.00 0.00 87 1008.0
20260506041601 77 154 9.6 13.0 0.00 0.00 0.00 88 1007.8
20260506041100 77 175 8.7 13.0 0.00 0.00 0.00 88 1007.8
20260506040610 77 169 7.0 11.3 0.00 0.00 0.00 88 1007.6
20260506040028 77 163 7.0 13.0 0.00 0.00 0.00 87 1007.5
20260506035539 77 166 7.8 13.0 0.00 0.00 0.00 87 1007.4
20260506034602 77 171 8.7 12.2 0.00 0.00 0.00 87 1007.2
20260506034112 77 184 8.7 12.2 0.00 0.00 0.00 86 1007.1
20260506033108 77 184 10.4 13.9 0.00 0.00 0.00 86 1006.9
20260506032549 78 150 11.3 15.6 0.00 0.00 0.00 86 1006.9
20260506032056 78 153 9.6 15.6 0.00 0.00 0.00 85 1006.9
20260506031526 78 165 10.4 16.5 0.00 0.00 0.00 85 1007.0
20260506031031 78 179 10.4 17.4 0.00 0.00 0.00 85 1006.9
20260506030035 78 181 8.7 13.9 0.00 0.00 0.00 85 1006.9
20260506025550 78 159 8.7 13.0 0.00 0.00 0.00 85 1006.9
20260506024545 78 165 7.0 14.8 0.00 0.00 0.00 84 1006.8
20260506024032 78 156 8.7 14.8 0.00 0.00 0.00 84 1006.8
20260506023053 78 172 7.0 13.0 0.00 0.00 0.00 84 1006.7
20260506022541 78 180 7.8 13.0 0.00 0.00 0.00 84 1006.6
20260506021601 78 186 7.8 10.4 0.00 0.00 0.00 83 1006.6
20260506021104 78 153 6.1 10.4 0.00 0.00 0.00 83 1006.6
20260506020043 79 167 7.8 13.0 0.00 0.00 0.00 83 1006.5
20260506015556 79 180 7.8 13.0 0.00 0.00 0.00 83 1006.5
20260506015054 79 171 7.0 10.4 0.00 0.00 0.00 83 1006.4
20260506014524 79 180 7.8 10.4 0.00 0.00 0.00 83 1006.2
20260506014036 79 163 7.8 12.2 0.00 0.00 0.00 83 1006.2
20260506013057 79 177 7.8 12.2 0.00 0.00 0.00 82 1006.0
20260506012600 79 175 7.8 13.9 0.00 0.00 0.00 82 1005.8
20260506012110 79 168 8.7 13.0 0.00 0.00 0.00 82 1005.8
20260506011528 79 165 8.7 14.8 0.00 0.00 0.00 82 1005.6
20260506011043 79 182 8.7 16.5 0.00 0.00 0.00 82 1005.6
20260506010104 80 152 11.3 14.8 0.00 0.00 0.00 81 1005.5
20260506005614 80 157 10.4 14.8 0.00 0.00 0.00 81 1005.4
20260506005116 80 166 9.6 13.9 0.00 0.00 0.00 81 1005.4
20260506004543 80 175 7.8 14.8 0.00 0.00 0.00 80 1005.4
20260506004024 80 146 9.6 14.8 0.00 0.00 0.00 80 1005.4
20260506003614 81 155 9.6 13.0 0.00 0.00 0.00 80 1005.3
20260506003041 81 155 9.6 13.0 0.00 0.00 0.00 80 1005.3
20260506002544 81 171 8.7 13.0 0.00 0.00 0.00 80 1005.4
20260506001608 81 172 9.6 15.6 0.00 0.00 0.00 79 1005.4
20260506001118 81 161 7.8 9.6 0.00 0.00 0.00 80 1005.3
20260506000555 81 175 6.1 15.6 0.00 0.00 0.00 80 1005.5
20260506000024 81 170 10.4 15.6 0.00 0.00 0.00 79 1005.5
20260505235535 81 158 6.1 14.8 0.00 0.00 0.00 80 1005.5
20260505234555 81 178 9.6 14.8 0.00 0.00 0.00 79 1005.3
20260505234058 81 165 10.4 15.6 0.00 0.00 0.00 79 1005.3
20260505233100 81 161 10.4 15.6 0.00 0.00 0.00 79 1005.3
20260505232603 82 160 11.3 15.6 0.00 0.00 0.00 78 1005.1
20260505231606 82 149 9.6 15.6 0.00 0.00 0.00 78 1005.3
20260505231034 82 158 8.7 13.0 0.00 0.00 0.00 78 1005.3
20260505225526 82 166 12.2 13.9 0.00 0.00 0.00 77 1005.1
20260505225133 83 166 7.8 14.8 0.00 0.00 0.00 77 1005.0
20260505224537 83 182 10.4 14.8 0.00 0.00 0.00 78 1004.9
20260505224042 83 180 7.8 14.8 0.00 0.00 0.00 78 1005.1
20260505223608 83 146 11.3 14.8 0.00 0.00 0.00 77 1005.1
20260505223034 83 205 11.3 15.6 0.00 0.00 0.00 74 1005.2
20260505222541 84 182 11.3 18.2 0.00 0.00 0.00 74 1005.3
20260505221601 84 150 9.6 17.4 0.00 0.00 0.00 74 1005.0
20260505221049 84 184 7.0 13.0 0.00 0.00 0.00 75 1005.0
20260505220050 84 167 10.4 19.1 0.00 0.00 0.00 75 1005.0
20260505215602 84 173 8.7 12.2 0.00 0.00 0.00 75 1005.1
20260505214539 84 185 10.4 13.9 0.00 0.00 0.00 74 1005.2
20260505214042 84 192 9.6 13.9 0.00 0.00 0.00 74 1005.3
20260505213049 85 196 10.4 18.2 0.00 0.00 0.00 73 1005.2
20260505212559 85 164 8.7 18.2 0.00 0.00 0.00 73 1005.4
20260505211621 84 191 11.3 14.8 0.00 0.00 0.00 73 1005.5
20260505211032 84 184 9.6 15.6 0.00 0.00 0.00 74 1005.6
20260505210053 85 201 8.7 13.0 0.00 0.00 0.00 74 1005.8
20260505205617 85 178 9.6 15.6 0.00 0.00 0.00 74 1005.9
20260505204617 84 192 10.4 15.6 0.00 0.00 0.00 74 1006.0
20260505204031 84 195 9.6 13.0 0.00 0.00 0.00 75 1006.0
20260505203054 84 181 9.6 13.9 0.00 0.00 0.00 75 1006.3
20260505202543 84 157 9.6 14.8 0.00 0.00 0.00 76 1006.3
20260505201604 84 207 9.6 15.6 0.00 0.00 0.00 75 1006.4
20260505201053 84 162 10.4 14.8 0.00 0.00 0.00 73 1006.5
20260505200052 84 195 8.7 14.8 0.00 0.00 0.00 76 1006.6
20260505195533 83 227 11.3 14.8 0.00 0.00 0.00 76 1006.6
20260505194601 83 170 8.7 15.6 0.00 0.00 0.00 76 1006.7
20260505194108 84 198 11.3 15.6 0.00 0.00 0.00 74 1006.7
20260505193115 84 219 8.7 18.2 0.00 0.00 0.00 75 1006.9
20260505192557 84 182 9.6 16.5 0.00 0.00 0.00 75 1006.8
20260505192103 84 184 8.7 14.8 0.00 0.00 0.00 76 1007.0
20260505191527 82 178 11.3 14.8 0.00 0.00 0.00 77 1007.0
20260505191140 82 205 10.4 13.9 0.00 0.00 0.00 76 1007.1
20260505190557 83 200 9.6 13.0 0.00 0.00 0.00 76 1007.1
20260505190030 83 184 9.6 17.4 0.00 0.00 0.00 76 1007.1
20260505185540 83 225 8.7 17.4 0.00 0.00 0.00 76 1007.1
20260505184601 83 199 9.6 15.6 0.00 0.00 0.00 77 1007.3
20260505184118 83 182 11.3 17.4 0.00 0.00 0.00 76 1007.3
20260505183116 82 205 7.8 13.0 0.00 0.00 0.00 78 1007.5
20260505182621 81 184 7.0 13.9 0.00 0.00 0.00 79 1007.5
20260505181622 81 257 11.3 13.9 0.00 0.00 0.00 77 1007.6
20260505181025 82 227 8.7 15.6 0.00 0.00 0.00 78 1007.6
20260505180042 81 213 10.4 19.1 0.00 0.00 0.00 78 1007.6
20260505175553 81 207 11.3 18.2 0.00 0.00 0.00 78 1007.6
20260505175055 81 191 10.4 17.4 0.00 0.00 0.00 78 1007.7
20260505174525 81 219 8.7 13.0 0.00 0.00 0.00 79 1007.8
20260505174035 80 164 9.6 13.0 0.00 0.00 0.00 79 1007.9
20260505173055 81 232 10.4 18.2 0.00 0.00 0.00 77 1007.8
20260505172556 81 211 9.6 18.2 0.00 0.00 0.00 79 1007.8
20260505171624 81 202 12.2 19.1 0.00 0.00 0.00 78 1007.9
20260505171030 80 195 9.6 14.8 0.00 0.00 0.00 80 1007.9
20260505170637 80 232 7.0 14.8 0.00 0.00 0.00 81 1008.1
20260505170038 80 216 7.8 18.2 0.00 0.00 0.00 82 1008.1
20260505165546 79 211 11.3 18.2 0.00 0.00 0.00 82 1008.1
20260505164606 79 223 9.6 15.6 0.00 0.00 0.00 83 1008.2
20260505164056 78 210 8.7 13.9 0.00 0.00 0.00 83 1008.1
20260505163056 78 202 7.0 18.2 0.00 0.00 0.00 84 1008.2
20260505162606 78 242 11.3 18.2 0.00 0.00 0.00 83 1008.1
20260505162111 78 213 7.8 16.5 0.00 0.00 0.00 85 1008.2
20260505161537 77 215 10.4 16.5 0.00 0.00 0.00 85 1008.2
20260505161044 77 221 8.7 15.6 0.00 0.00 0.00 86 1008.2
20260505153118 75 209 5.2 11.3 0.00 0.00 0.00 88 1008.0
20260505152527 75 207 8.7 11.3 0.00 0.00 0.00 88 1008.1
20260505152131 75 198 8.7 11.3 0.00 0.00 0.00 88 1008.1
20260505151540 75 209 6.1 11.3 0.00 0.00 0.00 88 1008.1
20260505151053 75 199 8.7 11.3 0.00 0.00 0.00 88 1008.0
20260505140120 74 196 6.1 11.3 0.00 0.00 0.00 89 1007.8
20260505130116 72 173 8.7 14.8 0.00 0.00 0.00 90 1007.3
20260505124626 72 190 9.6 13.9 0.00 0.00 0.00 90 1007.3
20260505124116 72 219 8.7 13.9 0.00 0.00 0.00 91 1007.4
20260505123618 72 180 8.7 13.0 0.00 0.00 0.00 90 1007.3
20260505123028 72 163 7.0 12.2 0.00 0.00 0.00 91 1007.3
20260505122536 72 215 7.8 13.0 0.00 0.00 0.00 91 1007.4
20260505121634 72 213 7.8 13.0 0.00 0.00 0.00 91 1007.0
20260505121054 72 191 7.8 13.9 0.00 0.00 0.00 91 1006.9
20260505120601 71 215 8.7 13.0 0.00 0.00 0.00 91 1006.9
20260505120024 71 208 7.0 13.0 0.00 0.00 0.00 91 1007.0
20260505115635 71 202 7.0 13.0 0.00 0.00 0.00 91 1007.1
20260505114614 71 207 8.7 12.2 0.00 0.00 0.00 91 1007.1
20260505114058 71 204 8.7 14.8 0.00 0.00 0.00 91 1007.0
20260505113608 71 194 8.7 14.8 0.00 0.00 0.00 91 1007.1
20260505112533 71 200 9.6 13.9 0.00 0.00 0.00 91 1006.9
20260505111553 71 200 8.7 14.8 0.00 0.00 0.00 91 1007.0
20260505111100 71 202 8.7 17.4 0.00 0.00 0.00 91 1006.8
20260505110557 71 189 10.4 15.6 0.00 0.00 0.00 91 1006.7
20260505102114 70 186 8.7 13.0 0.00 0.00 0.00 90 1006.9
20260505101534 70 190 7.8 11.3 0.00 0.00 0.00 91 1007.0
20260505101045 70 200 7.8 13.0 0.00 0.00 0.00 90 1006.8
20260505100044 70 200 9.6 16.5 0.00 0.00 0.00 91 1007.1
20260505095553 70 196 7.8 11.3 0.00 0.00 0.00 90 1007.1
20260505094547 70 214 7.0 13.0 0.00 0.00 0.00 90 1007.0
20260505094053 70 192 8.7 13.0 0.00 0.00 0.00 90 1007.0
20260505093558 70 192 7.0 11.3 0.00 0.00 0.00 90 1006.9